User: anonymous   Login
Location: Austin
(30.3000°N, 97.7500°W)
Time: 17:19:14
(UTC-05:00)
Language:

DELTA 2 R/B (1) - Orbit

View from above orbital plane
View from above orbital plane
View from above satellite
View from above satellite

Ground track
Ground track

The orbit data is extracted from the following two-line orbital elements,

1 27665U 03005C   24260.43802350  .00000621  00000-0  27535-3 0  9997
2 27665  39.5760 302.2972 0008660 210.5991 165.1013 14.29119058129616
Epoch (UTC): 16 September 2024 10:30:45
Eccentricity: 0.0008660
inclination: 39.5760°
perigee height: 788 km
apogee height: 801 km
right ascension of ascending node: 302.2972°
argument of perigee: 210.5991°
revolutions per day: 14.29119058
mean anomaly at epoch: 165.1013°
orbit number at epoch: 12961

The dashed part of the orbit path shows where the satellite is in the earth's shadow,  

DLR